| time (UTC) | temp F | wind direction | speed MPH | gust MPH | rain 1hr in | rain 24hr in | rain mn in | humidity % | barometer mb |
| 20260905194114 | 68 | 214 | 4.0 | 6.0 | 0.01 | 0.01 | 0.00 | 97 | 910.4 |
| 20260905193613 | 68 | 215 | 4.0 | 6.0 | 0.01 | 0.01 | 0.00 | 97 | 910.4 |
| 20260905193514 | 68 | 224 | 3.0 | 6.0 | 0.01 | 0.01 | 0.00 | 97 | 910.3 |
| 20260905193113 | 68 | 260 | 4.0 | 6.0 | 0.01 | 0.01 | 0.00 | 97 | 910.4 |
| 20260905192914 | 68 | 233 | 4.0 | 6.0 | 0.01 | 0.01 | 0.00 | 97 | 910.3 |
| 20260905192613 | 68 | 250 | 4.0 | 6.0 | 0.01 | 0.01 | 0.00 | 97 | 910.3 |
| 20260905192314 | 68 | 260 | 4.0 | 5.0 | 0.00 | 0.00 | 0.00 | 97 | 910.3 |
| 20260905192113 | 68 | 248 | 0.0 | 5.0 | 0.00 | 0.00 | 0.00 | 97 | 910.3 |
| 20260905191714 | 68 | 249 | 4.0 | 5.0 | 0.01 | 0.01 | 0.00 | 97 | 910.4 |
| 20260905191613 | 68 | 256 | 3.0 | 5.0 | 0.01 | 0.01 | 0.00 | 97 | 910.4 |
| 20260905191114 | 68 | 298 | 3.0 | 4.0 | 0.01 | 0.01 | 0.00 | 96 | 910.5 |
| 20260905191112 | 68 | 301 | 3.0 | 4.0 | 0.01 | 0.01 | 0.00 | 96 | 910.5 |
| 20260905190613 | 69 | 271 | 2.0 | 4.0 | 0.00 | 0.00 | 0.00 | 96 | 910.5 |
| 20260905190514 | 69 | 260 | 2.0 | 3.0 | 0.00 | 0.00 | 0.00 | 96 | 910.5 |
| 20260905190112 | 69 | 265 | 0.0 | 2.0 | 0.00 | 0.00 | 0.00 | 96 | 910.5 |
| 20260905185914 | 69 | 266 | 1.0 | 2.0 | 0.01 | 0.01 | 0.00 | 96 | 910.5 |
| 20260905185612 | 69 | 289 | 0.0 | 2.0 | 0.00 | 0.00 | 0.00 | 96 | 910.6 |
| 20260905185314 | 69 | 313 | 1.0 | 2.0 | 0.00 | 0.00 | 0.00 | 96 | 910.6 |
| 20260905185112 | 69 | 284 | 1.0 | 2.0 | 0.00 | 0.00 | 0.00 | 96 | 910.6 |
| 20260905184714 | 69 | 290 | 1.0 | 2.0 | 0.00 | 0.00 | 0.00 | 96 | 910.7 |
| 20260905184612 | 69 | 302 | 1.0 | 2.0 | 0.00 | 0.00 | 0.00 | 96 | 910.7 |
| 20260905184112 | 69 | 276 | 0.0 | 1.0 | 0.03 | 0.03 | 0.00 | 96 | 910.7 |
| 20260905183612 | 69 | 360 | 0.0 | 1.0 | 0.02 | 0.02 | 0.00 | 96 | 910.8 |
| 20260905183513 | 69 | 360 | 0.0 | 1.0 | 0.02 | 0.02 | 0.00 | 96 | 910.8 |
| 20260905183112 | 69 | 49 | 1.0 | 1.0 | 0.02 | 0.02 | 0.00 | 96 | 910.8 |
| 20260905182913 | 69 | 55 | 0.0 | 1.0 | 0.02 | 0.02 | 0.00 | 96 | 910.8 |
| 20260905182612 | 69 | 49 | 0.0 | 0.0 | 0.02 | 0.02 | 0.00 | 96 | 910.9 |
| 20260905182314 | 69 | 55 | 0.0 | 1.0 | 0.02 | 0.02 | 0.00 | 96 | 910.9 |
| 20260905182112 | 69 | 94 | 0.0 | 1.0 | 0.02 | 0.02 | 0.00 | 96 | 910.9 |
| 20260905181713 | 69 | 199 | 0.0 | 1.0 | 0.02 | 0.02 | 0.00 | 96 | 910.9 |
| 20260905181612 | 69 | 315 | 0.0 | 1.0 | 0.02 | 0.02 | 0.00 | 96 | 910.9 |
| 20260905181112 | 69 | 355 | 0.0 | 1.0 | 0.02 | 0.02 | 0.00 | 96 | 910.9 |
| 20260905180612 | 69 | 75 | 1.0 | 1.0 | 0.01 | 0.01 | 0.00 | 96 | 911.0 |
| 20260905180514 | 69 | 90 | 1.0 | 1.0 | 0.01 | 0.01 | 0.00 | 96 | 911.0 |
| 20260905180112 | 69 | 9 | 1.0 | 4.0 | 0.02 | 0.02 | 0.00 | 95 | 911.0 |
| 20260905175913 | 69 | 6 | 2.0 | 4.0 | 0.02 | 0.02 | 0.00 | 95 | 911.0 |
| 20260905175612 | 69 | 50 | 3.0 | 4.0 | 0.01 | 0.01 | 0.00 | 94 | 911.2 |
| 20260905175313 | 69 | 44 | 3.0 | 4.0 | 0.00 | 0.00 | 0.00 | 94 | 911.1 |
| 20260905175112 | 69 | 60 | 2.0 | 4.0 | 0.00 | 0.00 | 0.00 | 94 | 911.2 |
| 20260905174713 | 69 | 65 | 3.0 | 4.0 | 0.00 | 0.00 | 0.00 | 93 | 911.3 |
| 20260905174612 | 69 | 55 | 3.0 | 4.0 | 0.00 | 0.00 | 0.00 | 93 | 911.3 |
| 20260905174113 | 69 | 81 | 3.0 | 4.0 | 0.00 | 0.00 | 0.00 | 93 | 911.3 |
| 20260905173612 | 68 | 45 | 1.0 | 1.0 | 0.00 | 0.00 | 0.00 | 95 | 911.3 |
| 20260905173513 | 68 | 47 | 1.0 | 1.0 | 0.00 | 0.00 | 0.00 | 95 | 911.3 |
| 20260905173112 | 68 | 59 | 1.0 | 2.0 | 0.00 | 0.00 | 0.00 | 96 | 911.3 |
| 20260905172913 | 69 | 61 | 1.0 | 2.0 | 0.00 | 0.00 | 0.00 | 97 | 911.4 |
| 20260905172313 | 68 | 98 | 0.0 | 1.0 | 0.00 | 0.00 | 0.00 | 97 | 911.3 |
| 20260905172112 | 69 | 66 | 1.0 | 2.0 | 0.00 | 0.00 | 0.00 | 97 | 911.3 |
| 20260905171713 | 68 | 69 | 1.0 | 2.0 | 0.00 | 0.00 | 0.00 | 97 | 911.3 |
| 20260905171612 | 68 | 28 | 1.0 | 2.0 | 0.00 | 0.00 | 0.00 | 97 | 911.3 |
| 20260905171113 | 68 | 28 | 2.0 | 4.0 | 0.00 | 0.00 | 0.00 | 97 | 911.3 |
| 20260905170611 | 68 | 55 | 2.0 | 4.0 | 0.00 | 0.00 | 0.00 | 97 | 911.2 |
| 20260905170513 | 68 | 51 | 3.0 | 4.0 | 0.00 | 0.00 | 0.00 | 97 | 911.2 |
| 20260905170112 | 68 | 70 | 2.0 | 4.0 | 0.00 | 0.00 | 0.00 | 97 | 911.2 |
| 20260905165913 | 68 | 61 | 4.0 | 5.0 | 0.00 | 0.00 | 0.00 | 97 | 911.2 |
| 20260905165611 | 68 | 60 | 5.0 | 5.0 | 0.00 | 0.00 | 0.00 | 97 | 911.2 |
| 20260905165313 | 68 | 63 | 4.0 | 5.0 | 0.00 | 0.00 | 0.00 | 97 | 911.2 |
| 20260905165111 | 68 | 57 | 3.0 | 5.0 | 0.00 | 0.00 | 0.00 | 97 | 911.3 |
| 20260905164713 | 68 | 74 | 5.0 | 6.0 | 0.00 | 0.00 | 0.00 | 97 | 911.3 |
| 20260905164611 | 68 | 75 | 5.0 | 6.0 | 0.00 | 0.00 | 0.00 | 97 | 911.4 |
| 20260905164113 | 68 | 74 | 0.0 | 5.0 | 0.00 | 0.00 | 0.00 | 97 | 911.4 |
| 20260905164111 | 68 | 79 | 0.0 | 5.0 | 0.00 | 0.00 | 0.00 | 97 | 911.4 |
| 20260905163611 | 68 | 83 | 0.0 | 4.0 | 0.00 | 0.00 | 0.00 | 98 | 911.5 |
| 20260905163513 | 68 | 86 | 0.0 | 5.0 | 0.00 | 0.00 | 0.00 | 98 | 911.5 |
| 20260905163111 | 68 | 59 | 5.0 | 6.0 | 0.00 | 0.00 | 0.00 | 97 | 911.5 |
| 20260905162912 | 68 | 69 | 5.0 | 6.0 | 0.00 | 0.00 | 0.00 | 97 | 911.5 |
| 20260905162611 | 68 | 63 | 0.0 | 6.0 | 0.00 | 0.00 | 0.00 | 97 | 911.5 |
| 20260905162312 | 68 | 66 | 6.0 | 6.0 | 0.00 | 0.00 | 0.00 | 97 | 911.5 |
| 20260905162111 | 68 | 75 | 5.0 | 6.0 | 0.00 | 0.00 | 0.00 | 97 | 911.6 |
| 20260905161712 | 68 | 64 | 5.0 | 6.0 | 0.00 | 0.00 | 0.00 | 97 | 911.5 |
| 20260905161611 | 68 | 62 | 4.0 | 5.0 | 0.00 | 0.00 | 0.00 | 97 | 911.5 |
| 20260905161114 | 68 | 63 | 4.0 | 5.0 | 0.00 | 0.00 | 0.00 | 97 | 911.5 |
| 20260905161112 | 68 | 64 | 4.0 | 5.0 | 0.00 | 0.00 | 0.00 | 97 | 911.5 |
| 20260905160611 | 68 | 91 | 5.0 | 9.0 | 0.00 | 0.00 | 0.00 | 97 | 911.6 |
| 20260905160512 | 68 | 95 | 5.0 | 9.0 | 0.00 | 0.00 | 0.00 | 97 | 911.5 |
| 20260905160111 | 68 | 73 | 2.0 | 7.0 | 0.00 | 0.00 | 0.00 | 98 | 911.6 |
| 20260905155913 | 68 | 70 | 4.0 | 6.0 | 0.00 | 0.00 | 0.00 | 97 | 911.6 |
| 20260905155611 | 68 | 71 | 5.0 | 6.0 | 0.00 | 0.00 | 0.00 | 97 | 911.6 |
| 20260905155312 | 68 | 68 | 4.0 | 6.0 | 0.00 | 0.00 | 0.00 | 97 | 911.7 |
| 20260905155111 | 68 | 67 | 3.0 | 6.0 | 0.00 | 0.00 | 0.00 | 97 | 911.7 |
| 20260905154712 | 68 | 88 | 0.0 | 5.0 | 0.00 | 0.00 | 0.00 | 97 | 911.8 |
| 20260905154611 | 68 | 66 | 5.0 | 6.0 | 0.00 | 0.00 | 0.00 | 97 | 911.8 |
| 20260905154113 | 68 | 52 | 2.0 | 5.0 | 0.00 | 0.00 | 0.00 | 97 | 911.8 |
| 20260905154111 | 68 | 56 | 2.0 | 5.0 | 0.00 | 0.00 | 0.00 | 97 | 911.8 |
| 20260905153611 | 68 | 66 | 6.0 | 7.0 | 0.00 | 0.00 | 0.00 | 97 | 911.8 |
| 20260905153512 | 68 | 62 | 3.0 | 7.0 | 0.00 | 0.00 | 0.00 | 97 | 911.9 |
| 20260905153111 | 68 | 77 | 6.0 | 7.0 | 0.00 | 0.00 | 0.00 | 97 | 911.9 |
| 20260905152912 | 68 | 77 | 5.0 | 7.0 | 0.00 | 0.00 | 0.00 | 97 | 911.9 |
| 20260905152611 | 68 | 80 | 6.0 | 10.0 | 0.00 | 0.00 | 0.00 | 97 | 912.0 |
| 20260905152312 | 68 | 66 | 7.0 | 10.0 | 0.00 | 0.00 | 0.00 | 97 | 912.0 |
| 20260905152111 | 68 | 64 | 8.0 | 10.0 | 0.00 | 0.00 | 0.00 | 97 | 912.0 |
| 20260905151712 | 68 | 71 | 6.0 | 8.0 | 0.00 | 0.00 | 0.00 | 97 | 912.0 |
| 20260905151112 | 69 | 73 | 5.0 | 7.0 | 0.00 | 0.00 | 0.00 | 97 | 911.9 |
| 20260905150611 | 69 | 82 | 6.0 | 8.0 | 0.00 | 0.00 | 0.00 | 97 | 911.8 |
| 20260905150512 | 69 | 61 | 7.0 | 8.0 | 0.00 | 0.00 | 0.00 | 97 | 911.9 |
| 20260905145912 | 69 | 66 | 7.0 | 9.0 | 0.00 | 0.00 | 0.00 | 97 | 911.9 |
| 20260905145610 | 69 | 72 | 7.0 | 9.0 | 0.00 | 0.00 | 0.00 | 97 | 911.9 |
| 20260905145312 | 69 | 82 | 1.0 | 7.0 | 0.00 | 0.00 | 0.00 | 97 | 911.8 |
| 20260905145111 | 69 | 70 | 7.0 | 10.0 | 0.00 | 0.00 | 0.00 | 97 | 911.8 |
| 20260905144712 | 69 | 96 | 8.0 | 10.0 | 0.00 | 0.00 | 0.00 | 96 | 911.9 |
| 20260905144612 | 69 | 69 | 8.0 | 10.0 | 0.00 | 0.00 | 0.00 | 96 | 911.9 |
| 20260905144112 | 69 | 87 | 6.0 | 9.0 | 0.00 | 0.00 | 0.00 | 96 | 911.9 |
| 20260905144110 | 69 | 76 | 6.0 | 9.0 | 0.00 | 0.00 | 0.00 | 96 | 911.9 |
| 20260905143610 | 69 | 89 | 7.0 | 9.0 | 0.00 | 0.00 | 0.00 | 96 | 912.0 |
| 20260905143512 | 69 | 95 | 7.0 | 8.0 | 0.00 | 0.00 | 0.00 | 96 | 912.0 |
| 20260905143110 | 69 | 77 | 6.0 | 7.0 | 0.00 | 0.00 | 0.00 | 96 | 912.0 |
| 20260905142912 | 69 | 79 | 4.0 | 6.0 | 0.00 | 0.00 | 0.00 | 96 | 912.0 |
| 20260905142610 | 68 | 83 | 5.0 | 6.0 | 0.00 | 0.00 | 0.00 | 96 | 912.1 |
| 20260905142311 | 68 | 103 | 4.0 | 5.0 | 0.00 | 0.00 | 0.00 | 96 | 912.1 |
| 20260905142110 | 68 | 101 | 1.0 | 5.0 | 0.00 | 0.00 | 0.00 | 97 | 912.1 |
| 20260905141711 | 68 | 92 | 6.0 | 7.0 | 0.00 | 0.00 | 0.00 | 97 | 912.2 |
| 20260905141610 | 68 | 105 | 6.0 | 7.0 | 0.00 | 0.00 | 0.00 | 97 | 912.2 |
| 20260905141112 | 68 | 97 | 6.0 | 7.0 | 0.00 | 0.00 | 0.00 | 97 | 912.2 |
| 20260905141110 | 68 | 90 | 6.0 | 7.0 | 0.00 | 0.00 | 0.00 | 97 | 912.2 |
| 20260905140610 | 68 | 90 | 4.0 | 6.0 | 0.00 | 0.00 | 0.00 | 97 | 912.2 |
| 20260905140513 | 68 | 82 | 1.0 | 6.0 | 0.00 | 0.00 | 0.00 | 97 | 912.1 |
| 20260905140110 | 68 | 84 | 1.0 | 6.0 | 0.00 | 0.00 | 0.00 | 97 | 912.1 |
| 20260905135911 | 68 | 94 | 1.0 | 8.0 | 0.00 | 0.00 | 0.00 | 97 | 912.2 |
| 20260905135610 | 68 | 100 | 6.0 | 7.0 | 0.00 | 0.00 | 0.00 | 97 | 912.2 |
| 20260905135311 | 68 | 96 | 6.0 | 7.0 | 0.00 | 0.00 | 0.00 | 97 | 912.1 |
| 20260905135110 | 68 | 69 | 5.0 | 7.0 | 0.00 | 0.00 | 0.00 | 97 | 912.1 |
| 20260905134711 | 68 | 98 | 5.0 | 7.0 | 0.00 | 0.00 | 0.00 | 98 | 912.1 |
| 20260905134610 | 68 | 113 | 5.0 | 7.0 | 0.00 | 0.00 | 0.00 | 98 | 912.1 |
| 20260905134112 | 68 | 80 | 5.0 | 7.0 | 0.00 | 0.00 | 0.00 | 97 | 912.0 |
| 20260905134110 | 68 | 85 | 5.0 | 7.0 | 0.00 | 0.00 | 0.00 | 97 | 912.0 |
| 20260905133610 | 68 | 99 | 5.0 | 7.0 | 0.00 | 0.00 | 0.00 | 98 | 912.1 |
| 20260905133511 | 68 | 103 | 4.0 | 7.0 | 0.00 | 0.00 | 0.00 | 97 | 912.0 |
| 20260905133110 | 69 | 115 | 6.0 | 8.0 | 0.00 | 0.00 | 0.00 | 98 | 912.0 |
| 20260905132911 | 69 | 99 | 5.0 | 8.0 | 0.00 | 0.00 | 0.00 | 98 | 912.0 |
| 20260905132610 | 69 | 91 | 6.0 | 8.0 | 0.00 | 0.00 | 0.00 | 98 | 912.0 |
| 20260905132311 | 69 | 90 | 7.0 | 9.0 | 0.00 | 0.00 | 0.00 | 98 | 912.0 |
| 20260905131711 | 69 | 90 | 7.0 | 9.0 | 0.00 | 0.00 | 0.00 | 98 | 911.9 |
| 20260905131610 | 69 | 103 | 6.0 | 9.0 | 0.00 | 0.00 | 0.00 | 98 | 911.8 |
| 20260905131111 | 69 | 108 | 6.0 | 8.0 | 0.00 | 0.00 | 0.00 | 98 | 911.9 |
| 20260905130610 | 69 | 94 | 5.0 | 7.0 | 0.00 | 0.00 | 0.00 | 98 | 911.8 |
| 20260905130511 | 69 | 103 | 5.0 | 6.0 | 0.00 | 0.00 | 0.00 | 98 | 911.8 |
| 20260905125610 | 69 | 89 | 3.0 | 5.0 | 0.00 | 0.00 | 0.00 | 98 | 911.7 |
| 20260905125311 | 69 | 78 | 4.0 | 5.0 | 0.00 | 0.00 | 0.00 | 97 | 911.7 |
| 20260905125110 | 69 | 87 | 3.0 | 5.0 | 0.00 | 0.00 | 0.00 | 98 | 911.7 |
| 20260905124711 | 69 | 89 | 3.0 | 5.0 | 0.00 | 0.00 | 0.00 | 98 | 911.6 |
| 20260905124609 | 69 | 89 | 1.0 | 5.0 | 0.00 | 0.00 | 0.00 | 98 | 911.7 |
| 20260905124109 | 69 | 114 | 1.0 | 5.0 | 0.00 | 0.00 | 0.00 | 98 | 911.6 |
| 20260905123610 | 69 | 88 | 0.0 | 4.0 | 0.00 | 0.00 | 0.00 | 98 | 911.5 |
| 20260905123511 | 69 | 102 | 4.0 | 6.0 | 0.00 | 0.00 | 0.00 | 98 | 911.5 |
| 20260905123109 | 69 | 118 | 2.0 | 6.0 | 0.00 | 0.00 | 0.00 | 98 | 911.5 |
| 20260905122911 | 69 | 131 | 0.0 | 6.0 | 0.00 | 0.00 | 0.00 | 98 | 911.5 |
| 20260905122609 | 69 | 86 | 5.0 | 7.0 | 0.00 | 0.00 | 0.00 | 98 | 911.5 |
| 20260905122311 | 69 | 102 | 1.0 | 6.0 | 0.00 | 0.00 | 0.00 | 98 | 911.4 |
| 20260905121711 | 69 | 83 | 1.0 | 5.0 | 0.00 | 0.00 | 0.00 | 98 | 911.3 |
| 20260905121609 | 69 | 119 | 4.0 | 8.0 | 0.00 | 0.00 | 0.00 | 98 | 911.3 |
| 20260905121111 | 69 | 129 | 5.0 | 6.0 | 0.00 | 0.00 | 0.00 | 98 | 911.3 |
| 20260905121109 | 69 | 127 | 5.0 | 6.0 | 0.00 | 0.00 | 0.00 | 98 | 911.3 |
| 20260905120609 | 69 | 120 | 4.0 | 6.0 | 0.00 | 0.00 | 0.00 | 98 | 911.3 |
| 20260905120511 | 69 | 122 | 2.0 | 6.0 | 0.00 | 0.00 | 0.00 | 98 | 911.3 |
| 20260905120109 | 69 | 129 | 4.0 | 6.0 | 0.00 | 0.00 | 0.00 | 98 | 911.2 |
| 20260905115910 | 70 | 128 | 5.0 | 7.0 | 0.00 | 0.00 | 0.00 | 98 | 911.1 |
| 20260905115609 | 70 | 147 | 5.0 | 7.0 | 0.00 | 0.00 | 0.00 | 98 | 911.1 |
| 20260905115310 | 70 | 127 | 5.0 | 7.0 | 0.00 | 0.00 | 0.00 | 98 | 911.1 |
| 20260905115109 | 70 | 83 | 4.0 | 7.0 | 0.00 | 0.00 | 0.00 | 98 | 911.0 |
| 20260905114711 | 70 | 129 | 4.0 | 5.0 | 0.00 | 0.00 | 0.00 | 98 | 911.0 |
| 20260905114610 | 69 | 92 | 3.0 | 5.0 | 0.00 | 0.00 | 0.00 | 98 | 911.0 |
| 20260905114111 | 70 | 100 | 5.0 | 8.0 | 0.00 | 0.00 | 0.00 | 97 | 910.9 |
| 20260905114109 | 70 | 101 | 5.0 | 8.0 | 0.00 | 0.00 | 0.00 | 97 | 910.9 |
| 20260905113609 | 70 | 106 | 5.0 | 8.0 | 0.00 | 0.00 | 0.00 | 98 | 910.9 |
| 20260905113510 | 70 | 88 | 5.0 | 8.0 | 0.00 | 0.00 | 0.00 | 97 | 910.9 |
| 20260905113109 | 70 | 116 | 6.0 | 8.0 | 0.00 | 0.00 | 0.00 | 97 | 910.8 |
| 20260905112910 | 70 | 97 | 6.0 | 8.0 | 0.00 | 0.00 | 0.00 | 97 | 910.8 |
| 20260905112609 | 70 | 99 | 7.0 | 8.0 | 0.00 | 0.00 | 0.00 | 97 | 910.8 |
| 20260905112310 | 70 | 94 | 6.0 | 8.0 | 0.00 | 0.00 | 0.00 | 97 | 910.7 |
| 20260905112109 | 70 | 120 | 6.0 | 8.0 | 0.00 | 0.00 | 0.00 | 97 | 910.8 |
| 20260905111710 | 70 | 98 | 4.0 | 8.0 | 0.00 | 0.00 | 0.00 | 97 | 910.7 |
| 20260905111609 | 69 | 135 | 5.0 | 8.0 | 0.00 | 0.00 | 0.00 | 97 | 910.7 |
| 20260905111110 | 69 | 112 | 5.0 | 7.0 | 0.00 | 0.00 | 0.00 | 97 | 910.6 |
| 20260905110609 | 69 | 100 | 4.0 | 6.0 | 0.00 | 0.00 | 0.00 | 97 | 910.6 |
| 20260905110510 | 69 | 99 | 5.0 | 6.0 | 0.00 | 0.00 | 0.00 | 97 | 910.6 |
| 20260905110109 | 69 | 121 | 3.0 | 5.0 | 0.00 | 0.00 | 0.00 | 97 | 910.5 |
| 20260905105910 | 69 | 155 | 4.0 | 7.0 | 0.00 | 0.00 | 0.00 | 97 | 910.5 |
| 20260905105609 | 70 | 111 | 4.0 | 7.0 | 0.00 | 0.00 | 0.00 | 97 | 910.5 |
| 20260905105310 | 70 | 161 | 3.0 | 7.0 | 0.00 | 0.00 | 0.00 | 97 | 910.5 |
| 20260905105109 | 70 | 117 | 4.0 | 7.0 | 0.00 | 0.00 | 0.00 | 97 | 910.4 |
| 20260905104710 | 70 | 90 | 2.0 | 5.0 | 0.00 | 0.00 | 0.00 | 97 | 910.4 |
| 20260905104608 | 69 | 94 | 1.0 | 4.0 | 0.00 | 0.00 | 0.00 | 97 | 910.5 |
| 20260905104110 | 69 | 81 | 1.0 | 5.0 | 0.00 | 0.00 | 0.00 | 97 | 910.4 |
| 20260905104108 | 69 | 80 | 1.0 | 5.0 | 0.00 | 0.00 | 0.00 | 97 | 910.3 |
| 20260905103608 | 70 | 101 | 5.0 | 7.0 | 0.00 | 0.00 | 0.00 | 97 | 910.2 |
| 20260905103510 | 70 | 111 | 5.0 | 7.0 | 0.00 | 0.00 | 0.00 | 97 | 910.2 |
| 20260905103109 | 70 | 98 | 4.0 | 8.0 | 0.00 | 0.00 | 0.00 | 97 | 910.2 |
| 20260905102910 | 70 | 103 | 5.0 | 7.0 | 0.00 | 0.00 | 0.00 | 96 | 910.1 |
| 20260905102608 | 70 | 101 | 2.0 | 4.0 | 0.00 | 0.00 | 0.00 | 96 | 910.2 |
| 20260905102310 | 70 | 103 | 0.0 | 4.0 | 0.00 | 0.00 | 0.00 | 96 | 910.2 |
| 20260905102109 | 70 | 82 | 2.0 | 6.0 | 0.00 | 0.00 | 0.00 | 96 | 910.1 |
| 20260905101710 | 70 | 80 | 4.0 | 6.0 | 0.00 | 0.00 | 0.00 | 96 | 910.1 |
| 20260905101608 | 70 | 72 | 4.0 | 6.0 | 0.00 | 0.00 | 0.00 | 96 | 910.1 |
| 20260905101110 | 70 | 105 | 1.0 | 5.0 | 0.00 | 0.00 | 0.00 | 96 | 910.1 |
| 20260905101108 | 70 | 103 | 1.0 | 5.0 | 0.00 | 0.00 | 0.00 | 96 | 910.0 |
| 20260905100608 | 70 | 110 | 4.0 | 8.0 | 0.00 | 0.00 | 0.00 | 95 | 910.0 |
| 20260905100108 | 71 | 84 | 3.0 | 5.0 | 0.00 | 0.00 | 0.00 | 95 | 910.1 |
| 20260905095909 | 71 | 103 | 2.0 | 4.0 | 0.00 | 0.00 | 0.00 | 95 | 910.1 |
| 20260905095608 | 71 | 100 | 2.0 | 3.0 | 0.00 | 0.00 | 0.00 | 94 | 910.1 |
| 20260905095309 | 72 | 75 | 2.0 | 3.0 | 0.00 | 0.00 | 0.00 | 94 | 910.0 |
| 20260905095108 | 72 | 110 | 1.0 | 3.0 | 0.00 | 0.00 | 0.00 | 95 | 910.0 |
| 20260905094608 | 71 | 157 | 1.0 | 3.0 | 0.00 | 0.00 | 0.00 | 94 | 910.0 |
| 20260905094110 | 71 | 75 | 2.0 | 3.0 | 0.00 | 0.00 | 0.00 | 93 | 909.9 |
| 20260905094108 | 71 | 73 | 2.0 | 3.0 | 0.00 | 0.00 | 0.00 | 93 | 910.0 |
| 20260905093608 | 71 | 72 | 2.0 | 3.0 | 0.00 | 0.00 | 0.00 | 93 | 909.9 |
| 20260905093509 | 71 | 92 | 0.0 | 3.0 | 0.00 | 0.00 | 0.00 | 93 | 909.9 |
| 20260905093108 | 71 | 68 | 3.0 | 4.0 | 0.00 | 0.00 | 0.00 | 93 | 909.9 |
| 20260905092909 | 71 | 75 | 2.0 | 4.0 | 0.00 | 0.00 | 0.00 | 93 | 909.8 |
| 20260905092608 | 71 | 50 | 1.0 | 3.0 | 0.00 | 0.00 | 0.00 | 93 | 909.8 |
| 20260905092309 | 72 | 50 | 1.0 | 2.0 | 0.00 | 0.00 | 0.00 | 93 | 909.8 |
| 20260905092109 | 71 | 41 | 0.0 | 0.0 | 0.00 | 0.00 | 0.00 | 93 | 909.8 |
| 20260905091709 | 71 | 71 | 0.0 | 3.0 | 0.00 | 0.00 | 0.00 | 93 | 909.8 |
| 20260905091608 | 72 | 63 | 0.0 | 4.0 | 0.00 | 0.00 | 0.00 | 93 | 909.8 |
| 20260905091110 | 72 | 45 | 3.0 | 4.0 | 0.00 | 0.00 | 0.00 | 92 | 909.7 |
| 20260905091108 | 72 | 53 | 3.0 | 4.0 | 0.00 | 0.00 | 0.00 | 92 | 909.7 |
| 20260905090608 | 73 | 49 | 1.0 | 4.0 | 0.00 | 0.00 | 0.00 | 92 | 909.6 |
| 20260905090509 | 73 | 43 | 1.0 | 4.0 | 0.00 | 0.00 | 0.00 | 92 | 909.7 |
| 20260905090108 | 73 | 51 | 1.0 | 2.0 | 0.00 | 0.00 | 0.00 | 91 | 909.6 |
| 20260905085909 | 73 | 264 | 0.0 | 1.0 | 0.00 | 0.00 | 0.00 | 92 | 909.7 |
| 20260905085608 | 73 | 121 | 0.0 | 2.0 | 0.00 | 0.00 | 0.00 | 93 | 909.6 |
| 20260905085309 | 72 | 116 | 0.0 | 3.0 | 0.00 | 0.00 | 0.00 | 92 | 909.6 |
| 20260905085108 | 73 | 83 | 2.0 | 5.0 | 0.00 | 0.00 | 0.00 | 92 | 909.6 |
| 20260905084709 | 73 | 126 | 2.0 | 4.0 | 0.00 | 0.00 | 0.00 | 92 | 909.6 |
| 20260905084607 | 73 | 121 | 2.0 | 4.0 | 0.00 | 0.00 | 0.00 | 91 | 909.7 |
| 20260905084109 | 73 | 142 | 2.0 | 3.0 | 0.00 | 0.00 | 0.00 | 92 | 909.7 |
| 20260905083607 | 73 | 165 | 3.0 | 6.0 | 0.00 | 0.00 | 0.00 | 92 | 909.7 |
| 20260905083509 | 73 | 233 | 3.0 | 6.0 | 0.00 | 0.00 | 0.00 | 92 | 909.7 |
| 20260905083107 | 73 | 94 | 3.0 | 6.0 | 0.00 | 0.00 | 0.00 | 91 | 909.7 |
| 20260905082909 | 74 | 169 | 4.0 | 6.0 | 0.00 | 0.00 | 0.00 | 91 | 909.7 |
| 20260905082608 | 74 | 166 | 1.0 | 4.0 | 0.00 | 0.00 | 0.00 | 91 | 909.6 |
| 20260905082309 | 75 | 201 | 2.0 | 4.0 | 0.00 | 0.00 | 0.00 | 91 | 909.5 |
| 20260905082107 | 74 | 206 | 3.0 | 6.0 | 0.00 | 0.00 | 0.00 | 91 | 909.6 |
| 20260905081709 | 75 | 204 | 4.0 | 6.0 | 0.00 | 0.00 | 0.00 | 90 | 909.5 |
| 20260905081607 | 75 | 183 | 3.0 | 6.0 | 0.00 | 0.00 | 0.00 | 91 | 909.5 |
| 20260905081109 | 74 | 218 | 3.0 | 5.0 | 0.00 | 0.00 | 0.00 | 91 | 909.5 |
| 20260905081107 | 74 | 216 | 3.0 | 5.0 | 0.00 | 0.00 | 0.00 | 91 | 909.6 |
| 20260905080607 | 74 | 217 | 3.0 | 5.0 | 0.00 | 0.00 | 0.00 | 90 | 909.5 |
| 20260905080508 | 75 | 198 | 3.0 | 5.0 | 0.00 | 0.00 | 0.00 | 91 | 909.5 |
| 20260905080107 | 74 | 141 | 1.0 | 4.0 | 0.00 | 0.00 | 0.00 | 91 | 909.5 |
| 20260905075607 | 74 | 228 | 2.0 | 8.0 | 0.00 | 0.00 | 0.00 | 92 | 909.6 |
| 20260905075308 | 74 | 200 | 4.0 | 9.0 | 0.00 | 0.00 | 0.00 | 92 | 909.6 |
| 20260905075107 | 74 | 139 | 4.0 | 9.0 | 0.00 | 0.00 | 0.00 | 91 | 909.6 |
| 20260905074708 | 73 | 225 | 2.0 | 9.0 | 0.00 | 0.00 | 0.00 | 92 | 909.6 |
| 20260905074607 | 73 | 173 | 4.0 | 9.0 | 0.00 | 0.00 | 0.00 | 92 | 909.7 |
| 20260905074109 | 73 | 227 | 3.0 | 5.0 | 0.00 | 0.00 | 0.00 | 94 | 909.7 |
| 20260905074107 | 73 | 216 | 3.0 | 5.0 | 0.00 | 0.00 | 0.00 | 94 | 909.7 |
| 20260905073607 | 73 | 200 | 4.0 | 7.0 | 0.00 | 0.00 | 0.00 | 93 | 909.8 |
| 20260905073508 | 73 | 198 | 5.0 | 7.0 | 0.00 | 0.00 | 0.00 | 94 | 909.8 |
| 20260905073107 | 73 | 219 | 6.0 | 10.0 | 0.00 | 0.00 | 0.00 | 93 | 909.8 |
| 20260905072908 | 73 | 112 | 6.0 | 10.0 | 0.00 | 0.00 | 0.00 | 93 | 909.8 |
| 20260905072607 | 74 | 207 | 4.0 | 7.0 | 0.00 | 0.00 | 0.00 | 92 | 909.8 |
| 20260905072308 | 74 | 177 | 4.0 | 10.0 | 0.00 | 0.00 | 0.00 | 92 | 909.8 |
| 20260905072108 | 74 | 142 | 4.0 | 10.0 | 0.00 | 0.00 | 0.00 | 93 | 909.8 |
| 20260905071708 | 73 | 199 | 5.0 | 10.0 | 0.00 | 0.00 | 0.00 | 93 | 909.8 |
| 20260905071607 | 73 | 210 | 6.0 | 10.0 | 0.00 | 0.00 | 0.00 | 93 | 909.7 |
| 20260905071108 | 74 | 187 | 5.0 | 10.0 | 0.00 | 0.00 | 0.00 | 91 | 909.7 |
| 20260905070607 | 75 | 145 | 5.0 | 8.0 | 0.00 | 0.00 | 0.00 | 91 | 909.8 |
| 20260905070508 | 74 | 134 | 3.0 | 8.0 | 0.00 | 0.00 | 0.00 | 93 | 909.8 |
| 20260905070107 | 72 | 149 | 2.0 | 4.0 | 0.00 | 0.00 | 0.00 | 94 | 909.8 |
| 20260905065908 | 72 | 176 | 1.0 | 4.0 | 0.00 | 0.00 | 0.00 | 95 | 909.9 |
| 20260905065607 | 72 | 223 | 6.0 | 8.0 | 0.00 | 0.00 | 0.00 | 95 | 910.0 |
| 20260905065308 | 72 | 189 | 5.0 | 7.0 | 0.00 | 0.00 | 0.00 | 94 | 910.0 |
| 20260905065107 | 72 | 204 | 4.0 | 6.0 | 0.00 | 0.00 | 0.00 | 94 | 909.9 |
| 20260905064708 | 72 | 174 | 5.0 | 8.0 | 0.00 | 0.00 | 0.00 | 95 | 910.0 |
| 20260905064607 | 72 | 192 | 4.0 | 8.0 | 0.00 | 0.00 | 0.00 | 95 | 910.0 |
| 20260905064108 | 72 | 189 | 3.0 | 8.0 | 0.00 | 0.00 | 0.00 | 94 | 910.0 |
| 20260905063607 | 72 | 208 | 5.0 | 10.0 | 0.00 | 0.00 | 0.00 | 95 | 910.0 |
| 20260905063508 | 72 | 191 | 4.0 | 10.0 | 0.00 | 0.00 | 0.00 | 95 | 910.0 |
| 20260905063107 | 72 | 210 | 6.0 | 10.0 | 0.00 | 0.00 | 0.00 | 95 | 910.1 |
| 20260905062908 | 72 | 191 | 6.0 | 10.0 | 0.00 | 0.00 | 0.00 | 95 | 910.1 |
| 20260905062606 | 72 | 243 | 4.0 | 8.0 | 0.00 | 0.00 | 0.00 | 94 | 910.0 |
| 20260905062309 | 72 | 214 | 3.0 | 8.0 | 0.00 | 0.00 | 0.00 | 95 | 910.1 |
| 20260905062106 | 72 | 157 | 5.0 | 7.0 | 0.00 | 0.00 | 0.00 | 94 | 910.1 |
| 20260905061708 | 72 | 206 | 2.0 | 4.0 | 0.00 | 0.00 | 0.00 | 95 | 910.1 |
| 20260905061607 | 72 | 201 | 1.0 | 4.0 | 0.00 | 0.00 | 0.00 | 95 | 910.1 |
| 20260905055908 | 73 | 197 | 1.0 | 4.0 | 0.00 | 0.00 | 0.00 | 93 | 910.1 |
| 20260905055308 | 72 | 130 | 1.0 | 5.0 | 0.00 | 0.00 | 0.00 | 94 | 910.2 |
| 20260905054708 | 72 | 181 | 2.0 | 7.0 | 0.00 | 0.00 | 0.00 | 95 | 910.2 |
| 20260905054108 | 71 | 203 | 2.0 | 5.0 | 0.00 | 0.00 | 0.00 | 95 | 910.2 |
| 20260905053606 | 72 | 225 | 1.0 | 5.0 | 0.00 | 0.00 | 0.00 | 95 | 910.2 |
| 20260905053507 | 72 | 242 | 5.0 | 9.0 | 0.00 | 0.00 | 0.00 | 95 | 910.2 |
| 20260905053106 | 72 | 164 | 4.0 | 7.0 | 0.00 | 0.00 | 0.00 | 94 | 910.2 |
| 20260905052907 | 72 | 201 | 5.0 | 7.0 | 0.00 | 0.00 | 0.00 | 94 | 910.3 |
| 20260905052308 | 73 | 193 | 0.0 | 5.0 | 0.00 | 0.00 | 0.00 | 93 | 910.4 |
| 20260905052106 | 73 | 176 | 1.0 | 8.0 | 0.00 | 0.00 | 0.00 | 93 | 910.3 |
| 20260905051710 | 74 | 130 | 1.0 | 4.0 | 0.00 | 0.00 | 0.00 | 93 | 910.4 |
| 20260905051107 | 73 | 223 | 3.0 | 6.0 | 0.00 | 0.00 | 0.00 | 93 | 910.5 |
| 20260905050607 | 73 | 188 | 4.0 | 6.0 | 0.00 | 0.00 | 0.00 | 94 | 910.5 |
| 20260905050507 | 73 | 132 | 4.0 | 6.0 | 0.00 | 0.00 | 0.00 | 94 | 910.5 |
| 20260905050106 | 72 | 160 | 3.0 | 6.0 | 0.00 | 0.00 | 0.00 | 94 | 910.6 |
| 20260905045907 | 72 | 203 | 4.0 | 6.0 | 0.00 | 0.00 | 0.00 | 94 | 910.6 |
| 20260905045606 | 72 | 178 | 0.0 | 3.0 | 0.00 | 0.00 | 0.00 | 94 | 910.7 |
| 20260905045307 | 72 | 79 | 1.0 | 6.0 | 0.00 | 0.00 | 0.00 | 95 | 910.8 |
| 20260905045106 | 72 | 119 | 2.0 | 6.0 | 0.00 | 0.00 | 0.00 | 95 | 910.8 |
| 20260905044707 | 72 | 189 | 3.0 | 6.0 | 0.00 | 0.00 | 0.00 | 95 | 910.8 |
| 20260905044606 | 72 | 184 | 2.0 | 6.0 | 0.00 | 0.00 | 0.00 | 95 | 910.8 |
| 20260905044107 | 72 | 187 | 1.0 | 8.0 | 0.00 | 0.00 | 0.00 | 95 | 910.8 |
| 20260905043606 | 71 | 92 | 4.0 | 8.0 | 0.00 | 0.00 | 0.00 | 95 | 910.9 |
| 20260905043507 | 71 | 99 | 5.0 | 8.0 | 0.00 | 0.00 | 0.00 | 95 | 910.9 |
| 20260905043106 | 71 | 98 | 3.0 | 7.0 | 0.00 | 0.00 | 0.00 | 95 | 910.9 |
| 20260905042907 | 71 | 83 | 4.0 | 7.0 | 0.00 | 0.00 | 0.00 | 94 | 910.9 |
| 20260905042605 | 72 | 125 | 5.0 | 7.0 | 0.00 | 0.00 | 0.00 | 94 | 911.0 |
| 20260905042106 | 72 | 140 | 4.0 | 8.0 | 0.00 | 0.00 | 0.00 | 94 | 911.0 |
| 20260905041707 | 72 | 125 | 3.0 | 8.0 | 0.00 | 0.00 | 0.00 | 94 | 911.0 |
| 20260905041605 | 72 | 130 | 4.0 | 8.0 | 0.00 | 0.00 | 0.00 | 94 | 911.0 |
| 20260905041107 | 73 | 107 | 0.0 | 7.0 | 0.00 | 0.00 | 0.00 | 93 | 910.9 |
| 20260905041105 | 73 | 110 | 0.0 | 7.0 | 0.00 | 0.00 | 0.00 | 93 | 911.0 |
| 20260905040605 | 73 | 137 | 1.0 | 3.0 | 0.00 | 0.00 | 0.00 | 94 | 911.0 |
| 20260905040507 | 73 | 154 | 1.0 | 3.0 | 0.00 | 0.00 | 0.00 | 95 | 911.0 |
| 20260905040105 | 72 | 116 | 1.0 | 2.0 | 0.00 | 0.00 | 0.00 | 95 | 911.1 |
| 20260905035907 | 72 | 203 | 2.0 | 4.0 | 0.00 | 0.00 | 0.00 | 95 | 911.1 |
| 20260905035605 | 72 | 164 | 1.0 | 3.0 | 0.00 | 0.00 | 0.00 | 96 | 911.0 |
| 20260905032306 | 73 | 172 | 4.0 | 10.0 | 0.00 | 0.00 | 0.00 | 93 | 911.2 |
| 20260905032105 | 73 | 210 | 6.0 | 10.0 | 0.00 | 0.00 | 0.00 | 92 | 911.2 |
| 20260905031706 | 74 | 126 | 3.0 | 5.0 | 0.00 | 0.00 | 0.00 | 90 | 911.2 |
| 20260905031605 | 74 | 142 | 4.0 | 5.0 | 0.00 | 0.00 | 0.00 | 90 | 911.2 |
| 20260905031107 | 73 | 132 | 0.0 | 3.0 | 0.00 | 0.00 | 0.00 | 92 | 911.2 |
| 20260905031105 | 73 | 142 | 0.0 | 3.0 | 0.00 | 0.00 | 0.00 | 92 | 911.3 |
| 20260905030506 | 73 | 115 | 0.0 | 0.0 | 0.00 | 0.00 | 0.00 | 91 | 911.4 |
| 20260905030105 | 74 | 123 | 2.0 | 8.0 | 0.00 | 0.00 | 0.00 | 91 | 911.3 |
| 20260905025906 | 74 | 214 | 2.0 | 8.0 | 0.00 | 0.00 | 0.00 | 91 | 911.2 |
| 20260905025606 | 74 | 105 | 5.0 | 8.0 | 0.00 | 0.00 | 0.00 | 90 | 911.2 |
| 20260905025306 | 74 | 138 | 3.0 | 6.0 | 0.00 | 0.00 | 0.00 | 90 | 911.3 |
| 20260905025105 | 74 | 197 | 3.0 | 7.0 | 0.00 | 0.00 | 0.00 | 91 | 911.3 |
| 20260905024706 | 73 | 117 | 1.0 | 7.0 | 0.00 | 0.00 | 0.00 | 91 | 911.3 |
| 20260905024605 | 73 | 129 | 4.0 | 8.0 | 0.00 | 0.00 | 0.00 | 90 | 911.2 |
| 20260905024106 | 73 | 125 | 3.0 | 8.0 | 0.00 | 0.00 | 0.00 | 91 | 911.3 |
| 20260905023605 | 74 | 128 | 3.0 | 7.0 | 0.00 | 0.00 | 0.00 | 92 | 911.2 |
| 20260905023506 | 73 | 159 | 2.0 | 8.0 | 0.00 | 0.00 | 0.00 | 92 | 911.2 |
| 20260905023105 | 73 | 160 | 4.0 | 8.0 | 0.00 | 0.00 | 0.00 | 92 | 911.3 |
| 20260905022906 | 73 | 121 | 4.0 | 8.0 | 0.00 | 0.00 | 0.00 | 91 | 911.2 |
| 20260905022605 | 74 | 84 | 5.0 | 8.0 | 0.00 | 0.00 | 0.00 | 91 | 911.2 |
| 20260905022105 | 74 | 93 | 1.0 | 8.0 | 0.00 | 0.00 | 0.00 | 89 | 911.1 |
| 20260905021706 | 75 | 134 | 2.0 | 7.0 | 0.00 | 0.00 | 0.00 | 90 | 911.2 |
| 20260905021605 | 75 | 152 | 2.0 | 7.0 | 0.00 | 0.00 | 0.00 | 90 | 911.2 |
| 20260905021106 | 73 | 154 | 3.0 | 6.0 | 0.00 | 0.00 | 0.00 | 91 | 911.1 |
| 20260905020104 | 73 | 84 | 0.0 | 3.0 | 0.00 | 0.00 | 0.00 | 89 | 911.1 |
| 20260905015906 | 74 | 103 | 7.0 | 9.0 | 0.00 | 0.00 | 0.00 | 88 | 911.1 |
| 20260905015604 | 74 | 139 | 4.0 | 7.0 | 0.00 | 0.00 | 0.00 | 89 | 911.1 |
| 20260905015307 | 76 | 47 | 4.0 | 6.0 | 0.00 | 0.00 | 0.00 | 87 | 911.1 |
| 20260905015105 | 76 | 131 | 1.0 | 6.0 | 0.00 | 0.00 | 0.00 | 86 | 911.1 |
| 20260905014705 | 76 | 127 | 4.0 | 8.0 | 0.00 | 0.00 | 0.00 | 89 | 911.1 |
| 20260905014604 | 76 | 103 | 5.0 | 8.0 | 0.00 | 0.00 | 0.00 | 89 | 911.1 |
| 20260905014106 | 75 | 136 | 3.0 | 7.0 | 0.00 | 0.00 | 0.00 | 90 | 911.1 |
| 20260905014104 | 75 | 150 | 3.0 | 7.0 | 0.00 | 0.00 | 0.00 | 90 | 911.1 |
| 20260905013604 | 74 | 126 | 3.0 | 7.0 | 0.00 | 0.00 | 0.00 | 91 | 911.1 |
| 20260905013505 | 74 | 127 | 0.0 | 5.0 | 0.00 | 0.00 | 0.00 | 91 | 911.1 |
| 20260905013104 | 74 | 93 | 1.0 | 5.0 | 0.00 | 0.00 | 0.00 | 90 | 911.1 |
| 20260905012905 | 73 | 98 | 0.0 | 4.0 | 0.00 | 0.00 | 0.00 | 91 | 911.1 |
| 20260905012604 | 73 | 101 | 4.0 | 6.0 | 0.00 | 0.00 | 0.00 | 91 | 911.1 |
| 20260905012306 | 72 | 89 | 2.0 | 8.0 | 0.00 | 0.00 | 0.00 | 92 | 911.0 |
| 20260905012104 | 72 | 115 | 3.0 | 6.0 | 0.00 | 0.00 | 0.00 | 91 | 911.0 |
| 20260905011705 | 72 | 72 | 2.0 | 7.0 | 0.00 | 0.00 | 0.00 | 92 | 911.0 |
| 20260905011604 | 72 | 86 | 4.0 | 6.0 | 0.00 | 0.00 | 0.00 | 93 | 910.9 |
| 20260905010604 | 72 | 92 | 0.0 | 6.0 | 0.00 | 0.00 | 0.00 | 92 | 911.0 |
| 20260905010505 | 72 | 90 | 1.0 | 7.0 | 0.00 | 0.00 | 0.00 | 91 | 910.9 |
| 20260905005905 | 72 | 100 | 3.0 | 7.0 | 0.00 | 0.00 | 0.00 | 91 | 910.9 |
| 20260905005604 | 72 | 60 | 1.0 | 5.0 | 0.00 | 0.00 | 0.00 | 90 | 910.9 |
| 20260905005307 | 71 | 5 | 0.0 | 0.0 | 0.00 | 0.00 | 0.00 | 91 | 910.9 |
| 20260905005104 | 71 | 136 | 3.0 | 8.0 | 0.00 | 0.00 | 0.00 | 90 | 910.9 |
| 20260905004705 | 71 | 88 | 4.0 | 8.0 | 0.00 | 0.00 | 0.00 | 90 | 910.8 |
| 20260905004606 | 71 | 73 | 1.0 | 4.0 | 0.00 | 0.00 | 0.00 | 90 | 910.8 |
| 20260905004105 | 72 | 92 | 7.0 | 10.0 | 0.00 | 0.00 | 0.00 | 91 | 910.8 |
| 20260905003604 | 71 | 48 | 7.0 | 10.0 | 0.00 | 0.00 | 0.00 | 92 | 910.6 |
| 20260905003505 | 71 | 91 | 5.0 | 10.0 | 0.00 | 0.00 | 0.00 | 92 | 910.6 |
| 20260905003104 | 71 | 90 | 6.0 | 10.0 | 0.00 | 0.00 | 0.00 | 93 | 910.6 |
| 20260905002905 | 71 | 75 | 6.0 | 10.0 | 0.00 | 0.00 | 0.00 | 92 | 910.6 |
| 20260905002604 | 71 | 88 | 5.0 | 9.0 | 0.00 | 0.00 | 0.00 | 92 | 910.5 |
| 20260905002306 | 71 | 73 | 5.0 | 9.0 | 0.00 | 0.00 | 0.00 | 92 | 910.5 |
| 20260905002103 | 71 | 48 | 4.0 | 9.0 | 0.00 | 0.00 | 0.00 | 90 | 910.5 |
| 20260905001705 | 71 | 37 | 0.0 | 5.0 | 0.00 | 0.00 | 0.00 | 92 | 910.5 |
| 20260905001604 | 71 | 51 | 4.0 | 6.0 | 0.00 | 0.00 | 0.00 | 91 | 910.5 |
| 20260905001106 | 71 | 128 | 3.0 | 7.0 | 0.00 | 0.00 | 0.00 | 93 | 910.4 |
| 20260905001104 | 71 | 140 | 3.0 | 7.0 | 0.00 | 0.00 | 0.00 | 93 | 910.4 |
| 20260905000505 | 70 | 26 | 4.0 | 6.0 | 0.00 | 0.00 | 0.00 | 92 | 910.4 |
| 20260905000103 | 70 | 49 | 4.0 | 6.0 | 0.00 | 0.00 | 0.00 | 93 | 910.4 |
| 20260904235905 | 70 | 51 | 3.0 | 6.0 | 0.00 | 0.00 | 0.00 | 92 | 910.4 |
| 20260904235603 | 70 | 71 | 3.0 | 6.0 | 0.00 | 0.00 | 0.00 | 93 | 910.4 |
| 20260904235306 | 70 | 85 | 3.0 | 6.0 | 0.00 | 0.00 | 0.00 | 93 | 910.4 |
| 20260904235104 | 70 | 51 | 4.0 | 6.0 | 0.00 | 0.00 | 0.00 | 93 | 910.4 |
| 20260904234705 | 69 | 53 | 3.0 | 5.0 | 0.00 | 0.00 | 0.00 | 94 | 910.3 |
| 20260904234603 | 69 | 56 | 4.0 | 6.0 | 0.00 | 0.00 | 0.00 | 94 | 910.3 |
| 20260904234105 | 69 | 45 | 4.0 | 6.0 | 0.00 | 0.00 | 0.00 | 96 | 910.2 |
| 20260904234103 | 69 | 47 | 4.0 | 6.0 | 0.00 | 0.00 | 0.00 | 96 | 910.2 |
| 20260904233603 | 69 | 45 | 4.0 | 6.0 | 0.00 | 0.00 | 0.00 | 96 | 910.2 |
| 20260904233505 | 68 | 39 | 4.0 | 6.0 | 0.00 | 0.00 | 0.00 | 96 | 910.2 |
| 20260904233103 | 68 | 36 | 4.0 | 6.0 | 0.00 | 0.00 | 0.00 | 96 | 910.1 |
| 20260904232904 | 68 | 49 | 5.0 | 6.0 | 0.00 | 0.00 | 0.00 | 96 | 910.1 |
| 20260904232603 | 68 | 47 | 4.0 | 6.0 | 0.00 | 0.00 | 0.00 | 96 | 910.0 |
| 20260904232306 | 68 | 51 | 4.0 | 6.0 | 0.00 | 0.00 | 0.00 | 96 | 910.1 |
| 20260904232103 | 68 | 48 | 5.0 | 6.0 | 0.00 | 0.00 | 0.00 | 96 | 910.0 |
| 20260904231704 | 68 | 50 | 5.0 | 6.0 | 0.00 | 0.00 | 0.00 | 96 | 909.9 |
| 20260904231603 | 68 | 32 | 5.0 | 6.0 | 0.00 | 0.00 | 0.00 | 96 | 910.0 |
| 20260904231105 | 68 | 64 | 5.0 | 6.0 | 0.00 | 0.00 | 0.00 | 96 | 909.8 |
| 20260904231103 | 68 | 65 | 5.0 | 6.0 | 0.00 | 0.00 | 0.00 | 96 | 909.9 |
| 20260904230603 | 68 | 40 | 4.0 | 6.0 | 0.00 | 0.00 | 0.00 | 96 | 909.8 |
| 20260904230504 | 68 | 53 | 4.0 | 6.0 | 0.00 | 0.00 | 0.00 | 96 | 909.9 |
| 20260904225904 | 68 | 61 | 4.0 | 5.0 | 0.00 | 0.00 | 0.00 | 96 | 909.9 |
| 20260904225603 | 68 | 66 | 4.0 | 5.0 | 0.00 | 0.00 | 0.00 | 96 | 909.9 |
| 20260904225306 | 68 | 55 | 3.0 | 5.0 | 0.00 | 0.00 | 0.00 | 96 | 909.8 |
| 20260904225103 | 68 | 79 | 4.0 | 5.0 | 0.00 | 0.00 | 0.00 | 96 | 909.8 |
| 20260904224704 | 68 | 62 | 4.0 | 6.0 | 0.00 | 0.00 | 0.00 | 97 | 909.8 |
| 20260904224603 | 68 | 39 | 4.0 | 6.0 | 0.00 | 0.00 | 0.00 | 97 | 909.8 |
| 20260904224105 | 68 | 38 | 4.0 | 6.0 | 0.00 | 0.00 | 0.00 | 97 | 909.7 |
| 20260904224103 | 68 | 43 | 4.0 | 6.0 | 0.00 | 0.00 | 0.00 | 97 | 909.8 |
| 20260904223603 | 68 | 43 | 3.0 | 6.0 | 0.00 | 0.00 | 0.00 | 97 | 909.6 |
| 20260904223504 | 68 | 51 | 1.0 | 6.0 | 0.00 | 0.00 | 0.00 | 97 | 909.6 |
| 20260904223104 | 68 | 45 | 5.0 | 6.0 | 0.00 | 0.00 | 0.00 | 97 | 909.6 |
| 20260904222904 | 68 | 36 | 5.0 | 6.0 | 0.00 | 0.00 | 0.00 | 97 | 909.6 |
| 20260904222603 | 68 | 46 | 5.0 | 6.0 | 0.00 | 0.00 | 0.00 | 97 | 909.5 |
| 20260904222306 | 68 | 40 | 4.0 | 5.0 | 0.00 | 0.00 | 0.00 | 97 | 909.5 |
| 20260904222103 | 68 | 21 | 4.0 | 5.0 | 0.00 | 0.00 | 0.00 | 97 | 909.5 |
| 20260904221704 | 68 | 53 | 3.0 | 5.0 | 0.00 | 0.00 | 0.00 | 97 | 909.5 |
| 20260904221603 | 68 | 51 | 2.0 | 5.0 | 0.00 | 0.00 | 0.00 | 97 | 909.5 |
| 20260904221104 | 68 | 80 | 3.0 | 5.0 | 0.00 | 0.00 | 0.00 | 97 | 909.5 |
| 20260904220603 | 68 | 39 | 3.0 | 5.0 | 0.00 | 0.00 | 0.00 | 97 | 909.5 |
| 20260904220504 | 68 | 60 | 3.0 | 6.0 | 0.00 | 0.00 | 0.00 | 97 | 909.4 |
| 20260904215904 | 68 | 53 | 4.0 | 6.0 | 0.00 | 0.00 | 0.00 | 97 | 909.4 |
| 20260904215602 | 68 | 44 | 4.0 | 6.0 | 0.00 | 0.00 | 0.00 | 97 | 909.4 |
| 20260904215305 | 68 | 39 | 5.0 | 6.0 | 0.00 | 0.00 | 0.00 | 97 | 909.3 |
| 20260904215103 | 68 | 17 | 5.0 | 6.0 | 0.00 | 0.00 | 0.00 | 97 | 909.3 |
| 20260904214704 | 68 | 38 | 3.0 | 5.0 | 0.00 | 0.00 | 0.00 | 97 | 909.3 |
| 20260904214602 | 68 | 39 | 0.0 | 5.0 | 0.00 | 0.00 | 0.00 | 97 | 909.4 |
| 20260904214107 | 67 | 45 | 0.0 | 0.0 | 0.00 | 0.00 | 0.00 | 97 | 909.4 |
| 20260904213602 | 68 | 36 | 4.0 | 6.0 | 0.00 | 0.00 | 0.00 | 97 | 909.3 |
| 20260904213504 | 68 | 37 | 4.0 | 6.0 | 0.00 | 0.00 | 0.00 | 97 | 909.3 |
| 20260904213102 | 68 | 36 | 5.0 | 6.0 | 0.00 | 0.00 | 0.00 | 97 | 909.3 |
| 20260904212904 | 68 | 38 | 4.0 | 6.0 | 0.00 | 0.00 | 0.00 | 97 | 909.3 |
| 20260904212602 | 68 | 38 | 5.0 | 6.0 | 0.00 | 0.00 | 0.00 | 97 | 909.3 |
| 20260904212306 | 68 | 29 | 5.0 | 6.0 | 0.00 | 0.00 | 0.00 | 97 | 909.3 |
| 20260904212102 | 68 | 50 | 5.0 | 6.0 | 0.00 | 0.00 | 0.00 | 97 | 909.3 |
| 20260904211704 | 68 | 42 | 5.0 | 6.0 | 0.00 | 0.00 | 0.00 | 97 | 909.3 |
| 20260904211602 | 68 | 61 | 5.0 | 6.0 | 0.00 | 0.00 | 0.00 | 97 | 909.3 |
| 20260904211104 | 67 | 40 | 0.0 | 0.0 | 0.00 | 0.00 | 0.00 | 97 | 909.2 |
| 20260904211102 | 67 | 43 | 0.0 | 0.0 | 0.00 | 0.00 | 0.00 | 97 | 909.3 |
| 20260904210602 | 68 | 38 | 1.0 | 4.0 | 0.00 | 0.00 | 0.00 | 97 | 909.3 |
| 20260904210503 | 68 | 46 | 3.0 | 4.0 | 0.00 | 0.00 | 0.00 | 97 | 909.3 |
| 20260904205903 | 68 | 57 | 4.0 | 6.0 | 0.00 | 0.00 | 0.00 | 97 | 909.3 |
| 20260904205602 | 68 | 47 | 4.0 | 6.0 | 0.00 | 0.00 | 0.00 | 97 | 909.3 |
| 20260904205305 | 68 | 48 | 5.0 | 6.0 | 0.00 | 0.00 | 0.00 | 97 | 909.3 |
| 20260904205102 | 68 | 49 | 5.0 | 6.0 | 0.00 | 0.00 | 0.00 | 97 | 909.2 |
| 20260904204703 | 68 | 53 | 5.0 | 6.0 | 0.00 | 0.00 | 0.00 | 97 | 909.3 |
| 20260904204602 | 68 | 45 | 5.0 | 6.0 | 0.00 | 0.00 | 0.00 | 97 | 909.3 |
| 20260904204104 | 68 | 50 | 4.0 | 5.0 | 0.00 | 0.00 | 0.00 | 97 | 909.2 |
| 20260904204102 | 68 | 49 | 4.0 | 5.0 | 0.00 | 0.00 | 0.00 | 97 | 909.3 |
| 20260904203602 | 68 | 44 | 4.0 | 5.0 | 0.00 | 0.00 | 0.00 | 96 | 909.3 |
| 20260904203503 | 68 | 50 | 4.0 | 5.0 | 0.00 | 0.00 | 0.00 | 96 | 909.3 |
| 20260904203102 | 68 | 54 | 4.0 | 5.0 | 0.00 | 0.00 | 0.00 | 96 | 909.2 |
| 20260904202903 | 68 | 25 | 4.0 | 5.0 | 0.00 | 0.00 | 0.00 | 96 | 909.2 |
| 20260904202602 | 68 | 39 | 4.0 | 5.0 | 0.00 | 0.00 | 0.00 | 96 | 909.3 |
| 20260904202305 | 68 | 31 | 4.0 | 6.0 | 0.00 | 0.00 | 0.00 | 96 | 909.2 |
| 20260904201703 | 68 | 25 | 4.0 | 6.0 | 0.00 | 0.00 | 0.00 | 96 | 909.1 |
| 20260904201602 | 68 | 30 | 4.0 | 6.0 | 0.00 | 0.00 | 0.00 | 96 | 909.2 |
| 20260904201103 | 68 | 48 | 4.0 | 5.0 | 0.00 | 0.00 | 0.00 | 96 | 909.1 |
| 20260904200602 | 68 | 35 | 4.0 | 5.0 | 0.00 | 0.00 | 0.00 | 95 | 909.1 |
| 20260904200503 | 68 | 25 | 4.0 | 5.0 | 0.00 | 0.00 | 0.00 | 95 | 909.1 |
| 20260904195903 | 68 | 23 | 5.0 | 6.0 | 0.00 | 0.00 | 0.00 | 96 | 909.1 |
| 20260904195305 | 68 | 6 | 4.0 | 6.0 | 0.00 | 0.00 | 0.00 | 96 | 909.0 |
| 20260904195101 | 68 | 26 | 5.0 | 6.0 | 0.00 | 0.00 | 0.00 | 96 | 909.0 |
| 20260904194703 | 68 | 13 | 5.0 | 5.0 | 0.00 | 0.00 | 0.00 | 96 | 909.0 |
| 20260904194601 | 68 | 25 | 5.0 | 5.0 | 0.00 | 0.00 | 0.00 | 96 | 909.0 |